Regional Weather Roundup
Issued by NWS Newport/Morehead, NC

Current Version | Previous Version | Graphics & Text | Print | Product List | Glossary Off
Versions: 1 2 3 4 5 6 7 8 9 10 11 12 13 14 15 16 17 18 19 20 21 22 23 24 25 26 27 28 29 30 31 32 33 34 35 36 37 38 39 40 41 42 43 44 45 46 47 48 49 50

000
ASUS42 KMHX 231325
RWRMHX
WEATHER ROUNDUP FOR EASTERN NORTH CAROLINA
NATIONAL WEATHER SERVICE NEWPORT/MOREHEAD CITY NC
900 AM EDT SAT JUL 23 2016

NOTE: "FAIR" INDICATES FEW OR NO CLOUDS BELOW 12,000 FEET
WITH NO SIGNIFICANT WEATHER AND/OR OBSTRUCTIONS TO VISIBILITY

NCZ015>017-031-032-045>047-102-103-231400-
NORTH COAST

CITY           SKY/WX    TMP DP  RH WIND       PRES   REMARKS
EDENTON        SUNNY     83  72  70 SW7       30.00S
ELIZABETH CITY SUNNY     83  73  72 SW9       29.99S
KITTY HAWK     SUNNY     84  73  68 SW7       29.99S
MANTEO           N/A     82  74  76 W9        30.01R

$$

NCZ045>047-081-094-103-104-231400-
CENTRAL COAST

CITY           SKY/WX    TMP DP  RH WIND       PRES   REMARKS
FRISCO         SUNNY     84  75  74 SW8       30.02S

$$

NCZ095-097-098-100-101-231400-
SOUTHERN COAST

CITY           SKY/WX    TMP DP  RH WIND       PRES   REMARKS
BEAUFORT       MOSUNNY   85  75  72 MISG      30.01S
CEDAR ISLAND   NOT AVBL
JACKSONVILLE   PTSUNNY   80  72  76 SW8       30.01S
PINEY ISLAND   NOT AVBL
WILMINGTON     PTSUNNY   77  73  87 SW5       30.02S


$$

NCZ011>013-027>030-043-044-078>080-089-090>093-098-231400-
COASTAL PLAIN

CITY           SKY/WX    TMP DP  RH WIND       PRES   REMARKS
AHOSKIE        SUNNY     79  73  83 CALM      29.99S
CLINTON        MOSUNNY   80  77  91 SW5       30.01S
ELIZABETHTOWN  MOSUNNY   81  74  80 S6        30.02S
GOLDSBORO      SUNNY     81  79  92 SW5       29.99R
GREENVILLE     SUNNY     81  75  83 SW7       30.01S
HAVELOCK       SUNNY     84  74  71 SW8       30.02S
KENANSVILLE    SUNNY     82  73  76 CALM      30.01R
KINSTON        SUNNY     82  73  74 SW7       30.01S
NEW BERN       MOSUNNY   82  73  74 SW6       30.02S
RICHLANDS      MOSUNNY   80  74  81 SW8       30.02R
ROCKY MOUNT    SUNNY     80  74  81 S6        29.99S
WASHINGTON     SUNNY     80  73  78 S7        30.01R
WHITEVILLE     CLOUDY    77  73  85 SE6       30.03R

$$

AMZ130-135-150-152-154-156-158-170-250-252-270-ANZ085-086-088-633-658-670-231400-
MARINE OBSERVATIONS

STATION/POSITION TIME  TEMP    WIND        PRES    WAVE   SWELL
                       AIR SEA DIR/SP/G            HT/PER HT/PER
                 (UTC) (F)     (DEG/KT/KT) (MB)    (FT/S) (FT/S)
CHESAPEAKE LIGHT NOT AVBL
64 E VA BEACH    1250   80 80  230/ 16/ 17 1014.9    4/ 5   2/ 8
DUCK             1300   81 61  230/ 12/ 13 1015.0
2 E DUCK         1211      67                N/A     2/ 8
OREGON INLET     1300   82 83  220/ 13/ 16 1015.9
13E OREGON INLT  1300      82                N/A     2/ 8   2/ 8
HATTERAS CG      1300   83 82  240/  8/ 10 1016.2
DIAMOND BUOY     1250   83 86  240/ 10/ 12 1016.5    2/ 9   2/ 9
CAPE LOOKOUT     1300   84     210/  8/  9 1016.2
BEAUFORT LAB     1300   85 82  240/  3/  9 1015.8
30 SE NEW RVR IN 1308   84 85  210/  8/ 10 1016.6
30 SE NEW RVR IN 1225      84                N/A     2/ 8
27 SE WRIGHTSVLE 1308   85 84  230/  8/ 10 1016.8
5 SE WRIGHTSVLE  1308   80 84  280/ 12/ 16 1017.4
225 S CAPE HAT   1250   83 84   60/  2/  2 1017.3    3/ 9   3/ 9
41 SE CHARLESTON 1250   85 86  260/  8/ 10 1016.1    3/ 9   3/ 9

$$




USA.gov is the U.S. government's official web portal to all federal, state and local government web resources and services.